Flag for U.S.A. Weather past 2 weeks in Lansing, Michigan, U.S.A.

Now
64 °F

Passing clouds.


Feels Like: 64 °F
Forecast: 59 / 71 °F
Wind: No wind

Location: Capital City Airport

Current Time: Aug 29, 2015 at 9:31:19 AM

Latest Report: Aug 29, 2015 at 8:53 AM


Visibility: 10 mi

Pressure: 30.14 "Hg

Humidity: 90%

Dew point: 61 °F

Location of LansingLocation

Historic Weather in Lansing — Graph

°F

Lansing temperature yesterday

Maximum temperature yesterday: 76 °F (at 3:53 PM)
Minimum temperature yesterday: 49 °F (at 6:53 AM)
Average temperature yesterday: 63 °F

Past Weeks' High & Low Weather Summary

 TemperatureHumidityPressure
High87 °F (Aug 16, 3:53 PM)97% (Aug 15, 1:53 AM)30.24 "Hg (Aug 15, 1:53 AM)
Low49 °F (Aug 28, 6:53 AM)41% (Aug 21, 1:53 PM)29.67 "Hg (Aug 19, 4:53 PM)
Average68 °F75%30.01 "Hg
* Reported Aug 14 7:53 AM — Aug 29 7:53 AM, Lansing, Weather by CustomWeather, © 2015

Note: Actual official high and low records may vary slightly from our data, if they occured in-between our weather recording intervals... More about our weather records

Advertising

Lansing weather history for previous 24 hours

 ConditionsComfort  
Time TempWeatherWind HumidityBarometerVisibility
7:53 AM
Sat, Aug 29
62 °FPassing clouds.5 mph96%30.13 "Hg10 mi
6:53 AM62 °FClear.5 mph93%30.12 "Hg10 mi
5:53 AM63 °FPassing clouds.3 mph93%30.11 "Hg10 mi
4:53 AM63 °FPassing clouds.6 mph93%30.11 "Hg10 mi
3:53 AM64 °FPassing clouds.5 mph94%30.12 "Hg10 mi
2:53 AM64 °FMostly cloudy.No wind94%30.12 "Hg10 mi
1:53 AM64 °FLight rain. Passing clouds.No wind94%30.14 "Hg10 mi
12:53 AM65 °FLight rain. Overcast.No wind91%30.14 "Hg10 mi
11:53 PM
Fri, Aug 28
65 °FPassing clouds.No wind85%30.13 "Hg10 mi
10:53 PM64 °FClear.No wind84%30.13 "Hg10 mi
9:53 PM64 °FClear.No wind84%30.13 "Hg10 mi
8:53 PM66 °FSunny.No wind81%30.12 "Hg10 mi
7:53 PM71 °FSunny.No wind66%30.12 "Hg10 mi
6:53 PM73 °FSunny.7 mph59%30.12 "Hg10 mi
5:53 PM73 °FSunny.8 mph59%30.12 "Hg10 mi
4:53 PM75 °FScattered clouds.9 mph58%30.13 "Hg10 mi
3:53 PM76 °FScattered clouds.8 mph54%30.14 "Hg10 mi
2:53 PM74 °FScattered clouds.9 mph57%30.15 "Hg10 mi
1:53 PM74 °FPassing clouds.5 mph60%30.16 "Hg10 mi
12:53 PM73 °FPartly sunny.5 mph62%30.18 "Hg10 mi
11:53 AM70 °FSunny.5 mph68%30.20 "Hg10 mi
10:53 AM67 °FPassing clouds.8 mph73%30.20 "Hg10 mi
9:53 AM62 °FScattered clouds.3 mph80%30.20 "Hg10 mi
Weather by CustomWeather, © 2015

See weather overviewHow to use our weather pages